Regional Weather Roundup
Issued by NWS Sterling, VA

Home | Current Version | Previous Version | Text Only | Print | Product List | Glossary Off
Versions: 1 2 3 4 5 6 7 8 9 10 11 12 13 14 15 16 17 18 19 20 21 22 23 24 25 26 27 28 29 30 31 32 33 34 35 36 37 38 39 40 41 42 43 44 45 46 47 48 49 50

000
ASUS41 KLWX 010110
RWRLWX

REGIONAL WEATHER ROUNDUP
NATIONAL WEATHER SERVICE BALTIMORE MD/WASHINGTON DC
800 PM EST SAT FEB 28 2015

Note: "FAIR" indicates few or no clouds below 12,000 feet
with no significant weather and/or obstructions to visibility.
 TC=TEMPERATURE CELSIUS

 * =Non NWS site. Station does not report precipitation (e.g. rain,
    snow, etc.), thunder, or fog.

DCZ001-MDZ009-015-VAZ040>042-051-053>054-010200-
WASHINGTON METRO

CITY           SKY/WX    TMP DP  RH WIND       PRES   REMARKS
WASHINGTON NAT FAIR      28  10  46 SE6       30.78R
DULLES         FAIR      19   7  59 CALM      30.76R
ANDREWS AFB    CLEAR     23   8  54 SE6       30.76R
FT BELVOIR     FAIR      25   8  49 CALM      30.77R
QUANTICO       FAIR      25  15  66 NW3       30.79R
COLLEGE PARK*  FAIR      28   9  43 SE5       30.78R
LEESBURG*      FAIR      27   9  46 CALM      30.76R
MANASSAS*      CLEAR     21  12  68 CALM      30.77R
GAITHERSBURG*  CLEAR     21   0  39 CALM      30.78R

$$

MDZ006>007-011-014-010200-
BALTIMORE METRO

CITY           SKY/WX    TMP DP  RH WIND       PRES   REMARKS
BWI AIRPORT    PTCLDY    21   5  50 CALM      30.78R
MD SCIENCE CTR   N/A     25   6  44 MISG      30.82R
MARTIN STATE   PTCLDY    23  12  63 CALM      30.81R
ANNAPOLIS      CLEAR     24   5  44 S5        30.79R
FORT MEADE*    CLEAR     23   7  50 CALM      30.80R

$$

MDZ012-015-019>023-010200-
MARYLAND EASTERN SHORE

CITY           SKY/WX    TMP DP  RH WIND       PRES   REMARKS
OCEAN CITY     CLEAR     18  11  74 CALM      30.79S
SALISBURY      CLEAR     26  11  52 S3        30.78S
BAY BRIDGE AP*   N/A     25   3  39 CALM      30.79R
CAMBRIDGE*     CLEAR     25  12  58 CALM      30.78R
EASTON*        CLEAR     27   7  43 CALM      30.82R

$$

MDZ017>025-010200-
SOUTHERN MARYLAND

CITY           SKY/WX    TMP DP  RH WIND       PRES   REMARKS
PATUXENT RIVER CLEAR     20  10  65 CALM      30.78R
ST INIGOES     CLEAR     21  12  68 CALM      30.78R
LEONARDTOWN*   CLEAR     23   9  54 MISG        N/A

$$

MDZ003>005-010200-
NORTH CENTRAL MARYLAND

CITY           SKY/WX    TMP DP  RH WIND       PRES   REMARKS
FREDERICK*     CLEAR     23   9  54 CALM      30.78R
HAGERSTOWN APT CLEAR     25   3  38 SE6       30.71R
WESTMINSTER*   PTCLDY    21   0  39 CALM      30.72R

$$

MDZ501>502-010200-
WESTERN MARYLAND

CITY           SKY/WX    TMP DP  RH WIND       PRES   REMARKS
OAKLAND*       PTCLDY    19   0  42 SE13      30.49S WCI   7
CUMBERLAND*    CLEAR     28   5  37 SE3       30.72R

$$

VAZ025>031-010200-
SHENANDOAH VALLEY

CITY           SKY/WX    TMP DP  RH WIND       PRES   REMARKS
WINCHESTER*    FAIR      23   5  46 CALM      30.71S
FRONT ROYAL*   FAIR      25   7  46 CALM      30.70R
LURAY*         FAIR      28  14  54 CALM      30.68R
NEW MARKET*    FAIR      19  10  70 CALM      30.67R
STAUNTON*      FAIR      25  10  53 CALM      30.67S
WAYNESBORO*    FAIR      24   9  53 SE6       30.64S

$$

WVZ021-048>050-054>055-010200-
EASTERN WEST VIRGINIA PANHANDLE

CITY           SKY/WX    TMP DP  RH WIND       PRES   REMARKS
MARTINSBURG    FAIR      23   6  48 CALM      30.72S
PETERSBURG*    NOT AVBL

$$

VAZ036>039-050-010200-
CENTRAL FOOTHILLS

CITY           SKY/WX    TMP DP  RH WIND       PRES   REMARKS
CHARLOTTESVILL FAIR      28   8  43 CALM      30.71S
CULPEPER*      FAIR      21  16  79 CALM      30.75R
ORANGE*        FAIR      23  18  80 CALM      30.75S
GORDONSVILLE*  FAIR      23  14  68 CALM      30.73S
WARRENTON*     FAIR      21  17  86 E3        30.74S

$$

VAZ055>057-010200-
NORTH AND CENTRAL PIEDMONT

CITY           SKY/WX    TMP DP  RH WIND       PRES   REMARKS
FREDERICKSBRG* FAIR      29  11  47 CALM      30.76S
STAFFORD*      FAIR      25   7  46 CALM      30.80R

$$

NCZ024-NYZ072-PAZ021-071-VAZ022-071-010200-
OTHER REGIONAL OBSERVATIONS

CITY           SKY/WX    TMP DP  RH WIND       PRES   REMARKS
NEW YORK CITY  FAIR      28   2  32 W6        30.76S
PHILADELPHIA   FAIR      27   5  39 S5        30.77F
PITTSBURGH     FAIR      23  -1  35 E5        30.59F
ROANOKE        CLOUDY    31  14  49 SE7       30.69R
RICHMOND       MOCLDY    30  10  43 E6        30.75R
RALEIGH        MOCLDY    31  14  49 CALM      30.70S

$$

ANZ530>537-010200-
MARINE OBSERVATIONS

STATION/POSITION TIME  TEMP    WIND        PRES
                       AIR SEA DIR/SP/G
                 (UTC) (F)     (DEG/KT/KT) (MB)
THOMAS PT LIGHT  0100   26 31  160/  5/  5 1043.6R
BALT KEY BRIDGE  0000   26     150/  6/  7 1041.9F
COVE POINT       0000   25      80/  3/  4 1041.8F
LEWISETTA        0000   26 33     CALM     1042.0F
SOLOMONS ISLAND  0000      33                N/A

$$




USA.gov is the U.S. government's official web portal to all federal, state and local government web resources and services.